Location: Jangalapalle
(16.8036°N, 80.6370°E)
Time: 10:29:47
(UTC+00:00)

Cosmos 1484 Rocket - Pass Details

Date: 05 August 2024
Orbit: 474 x 516 km, 97.6° (Epoch: 09 September)

Event Time Altitude Azimuth Distance (km) Brightness Sun altitude
Rises 23:29:33 0° 353° (N) 2,516 6.4 -12.0°
Reaches altitude 10° 23:31:51 10° 338° (NNW) 1,640 5.2 -11.5°
Maximum altitude 23:34:43 24° 284° (WNW) 1,038 3.8 -10.8°
Enters shadow 23:36:49 14° 238° (WSW) 1,401 4.3 -10.4°
